Regional Weather Roundup
Issued by NWS

Home | Current Version | Previous Version | Graphics & Text | Print | Product List | Glossary On
Versions: 1 2 3 4 5 6 7 8 9 10 11 12 13 14 15 16 17 18 19 20 21 22 23 24 25 26 27 28 29 30 31 32 33 34 35 36 37 38 39 40 41 42 43 44 45 46 47 48 49 50
000
ASUS43 KTOP 122359
RWRKS

WEATHER ROUNDUP FOR KANSAS
NATIONAL WEATHER SERVICE GOODLAND KS
700 PM CDT SAT JUL 12 2014

NOTE:  "FAIR" INDICATES FEW OR NO CLOUDS BELOW 12,000 FEET WITH NO
SIGNIFICANT WEATHER AND/OR OBSTRUCTIONS TO VISIBILITY.

KSZ001>006-013>018-027>032-041>047-130100-
NORTHWEST KANSAS

CITY           SKY/WX    TMP DP  RH WIND       PRES   REMARKS
GOODLAND       MOSUNNY   84  63  49 N13       30.12S
6HR MIN TEMP:  83; 6HR MAX TEMP:  88;

HAYS           PTSUNNY   93  59  31 S13       29.94S
HILL CITY      MOSUNNY   89  68  49 N17       30.00R
6HR MIN TEMP:  89; 6HR MAX TEMP: 101; 6HR PCP: TRACE;

RUSSELL        SUNNY     93  66  40 S14       29.94F HX  96
6HR MIN TEMP:  92; 6HR MAX TEMP:  96;

$$

KSZ061>065-074>080-084>089-130100-
SOUTHWEST KANSAS

CITY           SKY/WX    TMP DP  RH WIND       PRES   REMARKS
DODGE CITY     SUNNY     92  57  30 S17G26    29.98F
6HR MIN TEMP:  89; 6HR MAX TEMP:  94;

ELKHART          N/A     93  58  30 S9          N/A
GARDEN CITY    MOSUNNY   89  61  38 S13       29.98F
6HR MIN TEMP:  88; 6HR MAX TEMP:  95;

GREAT BEND     SUNNY     93  66  40 S13       29.94F HX  96
LIBERAL        SUNNY     95  55  26 S16       30.02F
$$

KSZ066>073-081>083-090>101-130100-
SOUTHEAST KANSAS

CITY           SKY/WX    TMP DP  RH WIND       PRES   REMARKS
CHANUTE        SUNNY     90  68  48 S12       30.01F
6HR MIN TEMP:  90; 6HR MAX TEMP:  93;

COFFEYVILLE    SUNNY     91  66  43 S14       30.01F HAZE
6HR MIN TEMP:  90; 6HR MAX TEMP:  94;

HUTCHINSON     SUNNY     93  64  38 S14G25    29.98F
6HR MIN TEMP:  91; 6HR MAX TEMP:  94;

MEDICINE LODGE   N/A     93  63  36 S12       29.97F
NEWTON         SUNNY     91  63  38 SW13      30.02F
PARSONS        SUNNY     89  69  51 S8        30.03F
6HR MIN TEMP:  89; 6HR MAX TEMP:  93;

WICHITA INTL   MOSUNNY   91  65  41 S13       29.98F
6HR MIN TEMP:  89; 6HR MAX TEMP:  93;

WICHITA JABRA  SUNNY     91  66  43 S12G21    29.99F
6HR MIN TEMP:  89; 6HR MAX TEMP:  93;

WINFIELD       SUNNY     91  63  39 S14       30.00F
6HR MIN TEMP:  90; 6HR MAX TEMP:  93;

$$

KSZ007>012-019>026-033>040-048>060-102>105-130100-
NORTHEAST KANSAS

CITY           SKY/WX    TMP DP  RH WIND       PRES   REMARKS
CONCORDIA      SUNNY     93  67  42 S13       29.92F HX  96
6HR MIN TEMP:  93; 6HR MAX TEMP:  96;

EMPORIA        MOSUNNY   90  65  43 SW16G22   29.99F
6HR MIN TEMP:  90; 6HR MAX TEMP:  93;

LAWRENCE       MOSUNNY   92  68  45 SW13      29.95F HX  96
6HR MIN TEMP:  90; 6HR MAX TEMP:  96;

MANHATTAN      SUNNY     95  68  41 S14       29.93F HX  99
6HR MIN TEMP:  95; 6HR MAX TEMP: 100;

OLATHE IND     SUNNY     90  69  50 S14       29.98F
6HR MIN TEMP:  90; 6HR MAX TEMP:  96;

OLATHE EXE     SUNNY     88  68  51 SW12G21   29.98F
6HR MIN TEMP:  88; 6HR MAX TEMP:  92;

SALINA         SUNNY     96  65  35 S15       29.94F HX  98
6HR MIN TEMP:  95; 6HR MAX TEMP:  99;

TOPEKA BILLARD SUNNY     94  67  41 S12G23    29.94F HX  97
6HR MIN TEMP:  93; 6HR MAX TEMP:  97;

TOPEKA FORBES  SUNNY     92  66  42 SW15      29.96F
6HR MIN TEMP:  92; 6HR MAX TEMP:  97;

$$


USA.gov is the U.S. government's official web portal to all federal, state and local government web resources and services.